TimeCDT,TemperatureF,Dew PointF,Humidity,Sea Level PressureIn,VisibilityMPH,Wind Direction,Wind SpeedMPH,Gust SpeedMPH,PrecipitationIn,Events,Conditions,WindDirDegrees,DateUTC
12:53 AM,53.1,41.0,64,29.94,10.0,WSW,8.1,-,N/A,,Clear,250,2012-10-14 05:53:00
1:53 AM,54.0,39.0,57,29.96,10.0,NW,11.5,-,N/A,,Clear,320,2012-10-14 06:53:00
2:53 AM,52.0,41.0,66,29.99,10.0,NW,9.2,-,N/A,,Clear,320,2012-10-14 07:53:00
3:53 AM,51.1,41.0,68,29.99,10.0,NNW,11.5,-,N/A,,Clear,330,2012-10-14 08:53:00
4:53 AM,52.0,41.0,66,30.00,10.0,NNW,9.2,-,N/A,,Clear,330,2012-10-14 09:53:00
5:53 AM,52.0,42.1,69,30.01,10.0,NW,10.4,-,N/A,,Clear,320,2012-10-14 10:53:00
6:53 AM,51.1,42.1,71,30.05,10.0,NW,12.7,-,N/A,,Clear,320,2012-10-14 11:53:00
7:53 AM,52.0,41.0,66,30.10,10.0,NNW,10.4,-,N/A,,Clear,340,2012-10-14 12:53:00
8:53 AM,55.0,42.1,62,30.13,10.0,NNW,12.7,-,N/A,,Clear,340,2012-10-14 13:53:00
9:53 AM,62.1,43.0,50,30.15,10.0,North,13.8,-,N/A,,Clear,350,2012-10-14 14:53:00
10:53 AM,68.0,42.1,39,30.16,10.0,North,11.5,-,N/A,,Clear,360,2012-10-14 15:53:00
11:53 AM,71.1,39.0,31,30.17,10.0,NNE,15.0,20.7,N/A,,Clear,30,2012-10-14 16:53:00
12:53 PM,73.9,37.9,27,30.17,10.0,ENE,10.4,-,N/A,,Clear,60,2012-10-14 17:53:00
1:53 PM,75.9,39.0,26,30.15,10.0,ENE,10.4,16.1,N/A,,Clear,60,2012-10-14 18:53:00
2:53 PM,75.2,39.2,27,30.23,10.0,NNE,6.9,-,N/A,,Clear,20,2012-10-14 19:53:00
3:53 PM,77.0,37.0,24,30.11,10.0,NNE,8.1,-,N/A,,Clear,20,2012-10-14 20:53:00
4:53 PM,75.9,37.0,24,30.09,10.0,ENE,4.6,-,N/A,,Clear,70,2012-10-14 21:53:00
5:53 PM,75.9,37.9,25,30.08,10.0,Variable,3.5,-,N/A,,Clear,0,2012-10-14 22:53:00
6:53 PM,73.0,41.0,31,30.09,10.0,Calm,Calm,-,N/A,,Clear,0,2012-10-14 23:53:00
7:53 PM,66.9,41.0,39,30.11,10.0,NNE,4.6,-,N/A,,Clear,30,2012-10-15 00:53:00
8:53 PM,64.0,41.0,43,30.12,10.0,NE,3.5,-,N/A,,Clear,50,2012-10-15 01:53:00
9:53 PM,61.0,45.0,56,30.12,10.0,East,5.8,-,N/A,,Clear,100,2012-10-15 02:53:00
10:53 PM,60.1,44.1,55,30.12,10.0,SE,4.6,-,N/A,,Clear,130,2012-10-15 03:53:00
11:53 PM,57.9,43.0,58,30.12,10.0,South,5.8,-,N/A,,Clear,180,2012-10-15 04:53:00